Time,TemperatureF,DewpointF,PressureIn,WindDirection,WindDirectionDegrees,WindSpeedMPH,WindSpeedGustMPH,Humidity,HourlyPrecipIn,Conditions,Clouds,dailyrainin,SoftwareType,DateUTC
2013-03-25 00:00:00,25.7,21.8,29.81,West,267,0.0,0.0,85,0.00,,,0.08,Wunderground v.1.15,2013-03-25 04:00:00,
2013-03-25 00:05:00,25.6,22.0,29.81,West,267,0.0,0.0,86,0.00,,,0.00,Wunderground v.1.15,2013-03-25 04:05:00,
2013-03-25 00:10:00,25.6,22.0,29.81,West,267,0.0,0.0,86,0.00,,,0.00,Wunderground v.1.15,2013-03-25 04:10:00,
2013-03-25 00:15:00,25.4,21.8,29.81,West,267,0.0,0.0,86,0.00,,,0.00,Wunderground v.1.15,2013-03-25 04:15:00,
2013-03-25 00:25:00,25.3,21.7,29.81,West,267,0.0,0.0,86,0.00,,,0.00,Wunderground v.1.15,2013-03-25 04:25:00,
2013-03-25 00:30:00,25.1,21.8,29.81,West,267,0.0,0.0,87,0.00,,,0.00,Wunderground v.1.15,2013-03-25 04:30:00,
2013-03-25 00:35:00,25.0,21.7,29.80,West,267,0.0,0.0,87,0.00,,,0.00,Wunderground v.1.15,2013-03-25 04:35:00,
2013-03-25 00:45:00,25.0,21.9,29.80,West,267,0.0,0.0,88,0.00,,,0.00,Wunderground v.1.15,2013-03-25 04:45:00,
2013-03-25 00:50:00,25.0,21.9,29.80,West,267,0.0,0.0,88,0.00,,,0.00,Wunderground v.1.15,2013-03-25 04:50:00,
2013-03-25 00:55:00,24.8,21.5,29.80,West,267,0.0,0.0,87,0.00,,,0.00,Wunderground v.1.15,2013-03-25 04:55:00,
2013-03-25 01:05:00,24.7,21.7,29.80,West,267,0.0,0.0,88,0.00,,,0.00,Wunderground v.1.15,2013-03-25 05:05:00,
2013-03-25 01:10:00,24.7,21.7,29.80,West,267,0.0,0.0,88,0.00,,,0.00,Wunderground v.1.15,2013-03-25 05:10:00,
2013-03-25 01:15:00,24.7,21.7,29.80,West,267,0.0,0.0,88,0.00,,,0.00,Wunderground v.1.15,2013-03-25 05:15:00,
2013-03-25 01:25:00,24.5,21.7,29.79,West,267,0.0,0.0,89,0.00,,,0.00,Wunderground v.1.15,2013-03-25 05:25:00,
2013-03-25 01:30:00,24.7,21.7,29.79,West,267,0.0,0.0,88,0.00,,,0.00,Wunderground v.1.15,2013-03-25 05:30:00,
2013-03-25 01:35:00,24.7,21.7,29.79,West,267,0.0,0.0,88,0.00,,,0.00,Wunderground v.1.15,2013-03-25 05:35:00,
2013-03-25 01:45:00,24.5,21.5,29.79,West,267,0.0,0.0,88,0.00,,,0.00,Wunderground v.1.15,2013-03-25 05:45:00,
2013-03-25 01:50:00,24.4,21.4,29.79,West,267,0.0,0.0,88,0.00,,,0.00,Wunderground v.1.15,2013-03-25 05:50:00,
2013-03-25 01:55:00,24.4,21.4,29.79,West,267,0.0,0.0,88,0.00,,,0.00,Wunderground v.1.15,2013-03-25 05:55:00,
2013-03-25 02:05:00,24.1,21.3,29.78,West,267,0.0,0.0,89,0.00,,,0.00,Wunderground v.1.15,2013-03-25 06:05:00,
2013-03-25 02:10:00,23.9,21.1,29.78,West,267,0.0,0.0,89,0.00,,,0.00,Wunderground v.1.15,2013-03-25 06:10:00,
2013-03-25 02:20:00,23.8,21.0,29.78,West,267,0.0,0.0,89,0.00,,,0.00,Wunderground v.1.15,2013-03-25 06:20:00,
2013-03-25 02:25:00,23.8,21.0,29.78,West,267,0.0,0.0,89,0.00,,,0.00,Wunderground v.1.15,2013-03-25 06:25:00,
2013-03-25 02:30:00,23.6,21.1,29.78,West,267,0.0,0.0,90,0.00,,,0.00,Wunderground v.1.15,2013-03-25 06:30:00,
2013-03-25 02:35:00,23.6,21.1,29.78,West,267,0.0,0.0,90,0.00,,,0.00,Wunderground v.1.15,2013-03-25 06:35:00,
2013-03-25 02:45:00,23.3,20.8,29.78,West,267,0.0,0.0,90,0.00,,,0.00,Wunderground v.1.15,2013-03-25 06:45:00,
2013-03-25 02:50:00,23.2,20.7,29.78,West,267,0.0,0.0,90,0.00,,,0.00,Wunderground v.1.15,2013-03-25 06:50:00,
2013-03-25 02:55:00,23.2,20.7,29.78,West,267,0.0,0.0,90,0.00,,,0.00,Wunderground v.1.15,2013-03-25 06:55:00,
2013-03-25 03:05:00,23.0,20.8,29.78,West,267,0.0,0.0,91,0.00,,,0.00,Wunderground v.1.15,2013-03-25 07:05:00,
2013-03-25 03:10:00,23.0,20.8,29.78,West,267,0.0,0.0,91,0.00,,,0.00,Wunderground v.1.15,2013-03-25 07:10:00,
2013-03-25 03:20:00,23.0,20.8,29.78,West,267,0.0,0.0,91,0.00,,,0.00,Wunderground v.1.15,2013-03-25 07:20:00,
2013-03-25 03:25:00,23.0,20.8,29.78,West,267,0.0,0.0,91,0.00,,,0.00,Wunderground v.1.15,2013-03-25 07:25:00,
2013-03-25 03:30:00,23.0,21.0,29.78,West,267,0.0,0.0,92,0.00,,,0.00,Wunderground v.1.15,2013-03-25 07:30:00,
2013-03-25 03:40:00,23.2,21.2,29.77,West,267,0.0,0.0,92,0.00,,,0.00,Wunderground v.1.15,2013-03-25 07:40:00,
2013-03-25 03:45:00,23.2,21.0,29.77,West,267,0.0,0.0,91,0.00,,,0.00,Wunderground v.1.15,2013-03-25 07:45:00,
2013-03-25 03:50:00,23.2,21.2,29.77,West,267,0.0,0.0,92,0.00,,,0.00,Wunderground v.1.15,2013-03-25 07:50:00,
2013-03-25 03:55:00,23.2,21.2,29.77,West,267,0.0,0.0,92,0.00,,,0.00,Wunderground v.1.15,2013-03-25 07:55:00,
2013-03-25 04:05:00,23.0,21.0,29.76,West,267,0.0,0.0,92,0.00,,,0.00,Wunderground v.1.15,2013-03-25 08:05:00,
2013-03-25 04:15:00,22.9,20.7,29.76,West,267,0.0,0.0,91,0.00,,,0.00,Wunderground v.1.15,2013-03-25 08:15:00,
2013-03-25 04:20:00,22.9,20.9,29.76,West,267,0.0,0.0,92,0.00,,,0.00,Wunderground v.1.15,2013-03-25 08:20:00,
2013-03-25 04:25:00,22.9,20.9,29.76,West,267,0.0,0.0,92,0.00,,,0.00,Wunderground v.1.15,2013-03-25 08:25:00,
2013-03-25 04:30:00,22.9,20.9,29.76,West,267,0.0,0.0,92,0.00,,,0.00,Wunderground v.1.15,2013-03-25 08:30:00,
2013-03-25 04:40:00,22.9,20.9,29.76,West,267,0.0,0.0,92,0.00,,,0.00,Wunderground v.1.15,2013-03-25 08:40:00,
2013-03-25 04:45:00,22.7,20.7,29.76,West,267,0.0,0.0,92,0.00,,,0.00,Wunderground v.1.15,2013-03-25 08:45:00,
2013-03-25 04:50:00,22.7,20.5,29.76,West,267,0.0,0.0,91,0.00,,,0.00,Wunderground v.1.15,2013-03-25 08:50:00,
2013-03-25 05:00:00,22.4,20.2,29.76,West,267,0.0,0.0,91,0.00,,,0.00,Wunderground v.1.15,2013-03-25 09:00:00,
2013-03-25 05:05:00,22.4,20.4,29.76,West,267,0.0,0.0,92,0.00,,,0.00,Wunderground v.1.15,2013-03-25 09:05:00,
2013-03-25 05:10:00,22.2,20.2,29.76,West,267,0.0,0.0,92,0.00,,,0.00,Wunderground v.1.15,2013-03-25 09:10:00,
2013-03-25 05:20:00,22.2,20.2,29.76,West,267,0.0,0.0,92,0.00,,,0.00,Wunderground v.1.15,2013-03-25 09:20:00,
2013-03-25 05:25:00,22.1,20.1,29.76,West,267,0.0,0.0,92,0.00,,,0.00,Wunderground v.1.15,2013-03-25 09:25:00,
2013-03-25 05:30:00,22.1,20.1,29.76,West,267,0.0,0.0,92,0.00,,,0.00,Wunderground v.1.15,2013-03-25 09:30:00,
2013-03-25 05:35:00,21.9,19.9,29.75,West,267,0.0,0.0,92,0.00,,,0.00,Wunderground v.1.15,2013-03-25 09:35:00,
2013-03-25 05:45:00,21.6,19.6,29.75,West,267,0.0,0.0,92,0.00,,,0.00,Wunderground v.1.15,2013-03-25 09:45:00,
2013-03-25 05:50:00,21.6,19.6,29.75,West,267,0.0,0.0,92,0.00,,,0.00,Wunderground v.1.15,2013-03-25 09:50:00,
2013-03-25 05:55:00,21.6,19.6,29.75,West,267,0.0,0.0,92,0.00,,,0.00,Wunderground v.1.15,2013-03-25 09:55:00,
2013-03-25 06:05:00,21.4,19.4,29.75,West,267,0.0,0.0,92,0.00,,,0.00,Wunderground v.1.15,2013-03-25 10:05:00,
2013-03-25 06:15:00,21.4,19.7,29.74,West,267,0.0,0.0,93,0.00,,,0.00,Wunderground v.1.15,2013-03-25 10:15:00,
2013-03-25 06:20:00,21.4,19.7,29.74,West,267,0.0,0.0,93,0.00,,,0.00,Wunderground v.1.15,2013-03-25 10:20:00,
2013-03-25 06:25:00,21.4,19.7,29.74,West,267,0.0,0.0,93,0.00,,,0.00,Wunderground v.1.15,2013-03-25 10:25:00,
2013-03-25 06:30:00,21.6,19.9,29.75,West,267,0.0,0.0,93,0.00,,,0.00,Wunderground v.1.15,2013-03-25 10:30:00,
2013-03-25 06:40:00,21.8,20.1,29.75,West,267,0.0,0.0,93,0.00,,,0.00,Wunderground v.1.15,2013-03-25 10:40:00,
2013-03-25 06:45:00,21.8,20.1,29.75,West,267,0.0,0.0,93,0.00,,,0.00,Wunderground v.1.15,2013-03-25 10:45:00,
2013-03-25 06:50:00,21.8,20.1,29.75,West,267,0.0,0.0,93,0.00,,,0.00,Wunderground v.1.15,2013-03-25 10:50:00,
2013-03-25 06:55:00,21.9,20.2,29.75,West,267,0.0,0.0,93,0.00,,,0.00,Wunderground v.1.15,2013-03-25 10:55:00,
2013-03-25 07:05:00,21.9,20.2,29.75,West,267,0.0,0.0,93,0.00,,,0.00,Wunderground v.1.15,2013-03-25 11:05:00,
2013-03-25 07:10:00,22.1,20.4,29.75,West,267,0.0,0.0,93,0.00,,,0.00,Wunderground v.1.15,2013-03-25 11:10:00,
2013-03-25 07:20:00,22.2,20.5,29.75,West,267,0.0,0.0,93,0.00,,,0.00,Wunderground v.1.15,2013-03-25 11:20:00,
2013-03-25 07:25:00,22.4,20.9,29.75,West,267,0.0,0.0,94,0.00,,,0.00,Wunderground v.1.15,2013-03-25 11:25:00,
2013-03-25 07:30:00,22.5,20.8,29.75,West,267,0.0,0.0,93,0.00,,,0.00,Wunderground v.1.15,2013-03-25 11:30:00,
2013-03-25 07:35:00,22.7,21.2,29.76,West,267,0.0,0.0,94,0.00,,,0.00,Wunderground v.1.15,2013-03-25 11:35:00,
2013-03-25 07:45:00,23.2,21.7,29.76,West,267,0.0,0.0,94,0.00,,,0.00,Wunderground v.1.15,2013-03-25 11:45:00,
2013-03-25 07:50:00,23.5,21.8,29.76,West,267,0.0,0.0,93,0.00,,,0.00,Wunderground v.1.15,2013-03-25 11:50:00,
2013-03-25 07:55:00,23.9,22.2,29.76,West,267,0.0,0.0,93,0.00,,,0.00,Wunderground v.1.15,2013-03-25 11:55:00,
2013-03-25 08:05:00,24.5,22.8,29.76,West,267,0.0,0.0,93,0.00,,,0.00,Wunderground v.1.15,2013-03-25 12:05:00,
2013-03-25 08:10:00,25.0,23.0,29.76,West,267,0.0,0.0,92,0.00,,,0.00,Wunderground v.1.15,2013-03-25 12:10:00,
2013-03-25 08:20:00,25.6,22.8,29.76,West,267,0.0,0.0,89,0.00,,,0.00,Wunderground v.1.15,2013-03-25 12:20:00,
2013-03-25 08:25:00,26.0,22.9,29.76,West,267,0.0,0.0,88,0.00,,,0.00,Wunderground v.1.15,2013-03-25 12:25:00,
2013-03-25 08:30:00,26.4,23.1,29.75,West,267,0.0,0.0,87,0.00,,,0.00,Wunderground v.1.15,2013-03-25 12:30:00,
2013-03-25 08:40:00,27.3,23.1,29.75,West,267,0.0,0.0,84,0.00,,,0.00,Wunderground v.1.15,2013-03-25 12:40:00,
2013-03-25 08:45:00,27.8,23.3,29.75,West,267,0.0,0.0,83,0.00,,,0.00,Wunderground v.1.15,2013-03-25 12:45:00,
2013-03-25 08:50:00,28.2,23.1,29.75,West,267,0.0,0.0,81,0.00,,,0.00,Wunderground v.1.15,2013-03-25 12:50:00,
2013-03-25 09:00:00,29.1,23.4,29.75,West,267,0.0,0.0,79,0.00,,,0.00,Wunderground v.1.15,2013-03-25 13:00:00,
2013-03-25 09:05:00,29.5,23.5,29.74,West,267,0.0,0.0,78,0.00,,,0.00,Wunderground v.1.15,2013-03-25 13:05:00,
2013-03-25 09:15:00,30.3,23.6,29.74,West,267,0.0,0.0,76,0.00,,,0.00,Wunderground v.1.15,2013-03-25 13:15:00,
2013-03-25 09:20:00,30.9,23.9,29.74,West,267,0.0,0.0,75,0.00,,,0.00,Wunderground v.1.15,2013-03-25 13:20:00,
2013-03-25 09:25:00,31.3,24.0,29.73,West,267,0.0,1.0,74,0.00,,,0.00,Wunderground v.1.15,2013-03-25 13:25:00,
2013-03-25 09:30:00,31.9,24.2,29.73,West,267,0.0,0.0,73,0.00,,,0.00,Wunderground v.1.15,2013-03-25 13:30:00,
2013-03-25 09:40:00,32.8,24.4,29.73,West,267,0.0,0.0,71,0.00,,,0.00,Wunderground v.1.15,2013-03-25 13:40:00,
2013-03-25 09:45:00,33.4,25.0,29.73,West,267,0.0,0.0,71,0.00,,,0.00,Wunderground v.1.15,2013-03-25 13:45:00,
2013-03-25 09:55:00,34.6,24.8,29.72,South,169,0.0,1.0,67,0.00,,,0.00,Wunderground v.1.15,2013-03-25 13:55:00,
2013-03-25 10:00:00,35.2,25.7,29.72,SSE,148,0.0,1.0,68,0.00,,,0.00,Wunderground v.1.15,2013-03-25 14:00:00,
2013-03-25 10:05:00,35.9,25.3,29.72,SE,138,0.0,1.0,65,0.00,,,0.00,Wunderground v.1.15,2013-03-25 14:05:00,
2013-03-25 10:15:00,37.3,26.2,29.71,NNW,333,1.0,2.0,64,0.00,,,0.00,Wunderground v.1.15,2013-03-25 14:15:00,
2013-03-25 10:20:00,37.8,25.9,29.70,East,92,2.0,2.0,62,0.00,,,0.00,Wunderground v.1.15,2013-03-25 14:20:00,
2013-03-25 10:25:00,38.0,26.1,29.70,NNW,344,2.0,2.0,62,0.00,,,0.00,Wunderground v.1.15,2013-03-25 14:25:00,
2013-03-25 10:35:00,38.8,26.5,29.70,North,5,3.0,4.0,61,0.00,,,0.00,Wunderground v.1.15,2013-03-25 14:35:00,
2013-03-25 10:40:00,39.1,26.8,29.70,NNE,24,4.0,4.0,61,0.00,,,0.00,Wunderground v.1.15,2013-03-25 14:40:00,
2013-03-25 10:45:00,39.2,26.9,29.70,NE,45,4.0,6.0,61,0.00,,,0.00,Wunderground v.1.15,2013-03-25 14:45:00,
2013-03-25 10:55:00,39.3,26.6,29.69,North,5,4.0,4.0,60,0.00,,,0.00,Wunderground v.1.15,2013-03-25 14:55:00,
2013-03-25 11:00:00,39.6,26.8,29.69,ENE,70,5.0,5.0,60,0.00,,,0.00,Wunderground v.1.15,2013-03-25 15:00:00,
2013-03-25 11:10:00,40.1,27.3,29.68,NE,44,4.0,4.0,60,0.00,,,0.00,Wunderground v.1.15,2013-03-25 15:10:00,
2013-03-25 11:15:00,40.3,27.5,29.68,North,5,3.0,8.0,60,0.00,,,0.00,Wunderground v.1.15,2013-03-25 15:15:00,
2013-03-25 11:20:00,40.5,26.9,29.68,NE,36,5.0,5.0,58,0.00,,,0.00,Wunderground v.1.15,2013-03-25 15:20:00,
2013-03-25 11:30:00,40.9,26.8,29.68,NE,34,4.0,4.0,57,0.00,,,0.00,Wunderground v.1.15,2013-03-25 15:30:00,
2013-03-25 11:35:00,41.1,27.4,29.68,ENE,65,4.0,4.0,58,0.00,,,0.00,Wunderground v.1.15,2013-03-25 15:35:00,
2013-03-25 11:40:00,41.2,26.7,29.67,ENE,71,4.0,4.0,56,0.00,,,0.00,Wunderground v.1.15,2013-03-25 15:40:00,
2013-03-25 11:50:00,41.3,26.3,29.67,North,5,5.0,9.0,55,0.00,,,0.00,Wunderground v.1.15,2013-03-25 15:50:00,
2013-03-25 11:55:00,41.5,26.5,29.67,ENE,61,6.0,9.0,55,0.00,,,0.00,Wunderground v.1.15,2013-03-25 15:55:00,
2013-03-25 12:00:00,41.8,26.8,29.67,NE,53,5.0,5.0,55,0.00,,,0.00,Wunderground v.1.15,2013-03-25 16:00:00,
2013-03-25 12:10:00,42.1,27.1,29.67,NE,51,4.0,4.0,55,0.00,,,0.00,Wunderground v.1.15,2013-03-25 16:10:00,
2013-03-25 12:15:00,42.6,27.1,29.67,NNE,26,3.0,4.0,54,0.00,,,0.00,Wunderground v.1.15,2013-03-25 16:15:00,
2013-03-25 12:20:00,42.6,26.6,29.67,ENE,65,4.0,4.0,53,0.00,,,0.00,Wunderground v.1.15,2013-03-25 16:20:00,
2013-03-25 12:30:00,42.1,26.2,29.67,NE,53,5.0,6.0,53,0.00,,,0.00,Wunderground v.1.15,2013-03-25 16:30:00,
2013-03-25 12:35:00,41.9,25.5,29.67,ENE,63,5.0,7.0,52,0.00,,,0.00,Wunderground v.1.15,2013-03-25 16:35:00,
2013-03-25 12:45:00,41.6,25.3,29.66,NE,42,5.0,6.0,52,0.00,,,0.00,Wunderground v.1.15,2013-03-25 16:45:00,
2013-03-25 12:50:00,41.5,25.6,29.66,East,89,4.0,4.0,53,0.00,,,0.00,Wunderground v.1.15,2013-03-25 16:50:00,
2013-03-25 13:00:00,41.2,24.4,29.65,North,5,3.0,5.0,51,0.00,,,0.00,Wunderground v.1.15,2013-03-25 17:00:00,
2013-03-25 13:05:00,41.2,25.3,29.65,ENE,61,4.0,5.0,53,0.00,,,0.00,Wunderground v.1.15,2013-03-25 17:05:00,
2013-03-25 13:10:00,41.2,25.3,29.65,NNE,25,3.0,3.0,53,0.00,,,0.00,Wunderground v.1.15,2013-03-25 17:10:00,
2013-03-25 13:20:00,41.1,25.3,29.65,NE,34,3.0,3.0,53,0.00,,,0.00,Wunderground v.1.15,2013-03-25 17:20:00,
2013-03-25 13:25:00,40.9,25.1,29.64,NE,37,2.0,4.0,53,0.00,,,0.00,Wunderground v.1.15,2013-03-25 17:25:00,
2013-03-25 13:30:00,40.9,25.5,29.64,NNE,30,4.0,5.0,54,0.00,,,0.00,Wunderground v.1.15,2013-03-25 17:30:00,
2013-03-25 13:40:00,40.8,25.4,29.64,NNE,30,3.0,8.0,54,0.00,,,0.00,Wunderground v.1.15,2013-03-25 17:40:00,
2013-03-25 13:45:00,40.6,25.2,29.64,NE,56,3.0,8.0,54,0.00,,,0.00,Wunderground v.1.15,2013-03-25 17:45:00,
2013-03-25 13:50:00,40.6,25.2,29.63,NNW,338,4.0,4.0,54,0.00,,,0.00,Wunderground v.1.15,2013-03-25 17:50:00,
2013-03-25 14:00:00,41.2,26.2,29.63,NE,36,3.0,4.0,55,0.00,,,0.00,Wunderground v.1.15,2013-03-25 18:00:00,
2013-03-25 14:05:00,41.5,26.1,29.62,NNW,337,3.0,9.0,54,0.00,,,0.00,Wunderground v.1.15,2013-03-25 18:05:00,
2013-03-25 14:15:00,41.5,25.6,29.62,NE,38,3.0,4.0,53,0.00,,,0.00,Wunderground v.1.15,2013-03-25 18:15:00,
2013-03-25 14:20:00,41.6,25.7,29.61,NNW,333,3.0,4.0,53,0.00,,,0.00,Wunderground v.1.15,2013-03-25 18:20:00,
2013-03-25 14:25:00,42.1,25.7,29.61,ENE,70,4.0,4.0,52,0.00,,,0.00,Wunderground v.1.15,2013-03-25 18:25:00,
2013-03-25 14:30:00,42.1,25.7,29.61,North,5,5.0,5.0,52,0.00,,,0.00,Wunderground v.1.15,2013-03-25 18:30:00,
2013-03-25 14:40:00,41.9,26.0,29.60,ENE,74,3.0,4.0,53,0.00,,,0.00,Wunderground v.1.15,2013-03-25 18:40:00,
2013-03-25 14:45:00,41.6,25.7,29.60,ENE,74,4.0,4.0,53,0.00,,,0.00,Wunderground v.1.15,2013-03-25 18:45:00,
2013-03-25 14:50:00,41.5,26.1,29.60,NNE,19,5.0,9.0,54,0.00,,,0.00,Wunderground v.1.15,2013-03-25 18:50:00,
2013-03-25 15:00:00,41.2,25.3,29.59,NE,34,5.0,5.0,53,0.00,,,0.00,Wunderground v.1.15,2013-03-25 19:00:00,
2013-03-25 15:05:00,41.1,25.3,29.59,NNE,13,4.0,5.0,53,0.00,,,0.00,Wunderground v.1.15,2013-03-25 19:05:00,
2013-03-25 15:10:00,41.1,24.8,29.59,ENE,59,5.0,5.0,52,0.00,,,0.00,Wunderground v.1.15,2013-03-25 19:10:00,
2013-03-25 15:20:00,41.1,25.3,29.58,NNE,21,4.0,5.0,53,0.00,,,0.00,Wunderground v.1.15,2013-03-25 19:20:00,
2013-03-25 15:25:00,41.2,25.3,29.58,NE,37,4.0,8.0,53,0.00,,,0.00,Wunderground v.1.15,2013-03-25 19:25:00,
2013-03-25 15:30:00,41.3,25.0,29.57,NE,47,5.0,5.0,52,0.00,,,0.00,Wunderground v.1.15,2013-03-25 19:30:00,
2013-03-25 15:35:00,41.5,24.7,29.57,NNE,23,5.0,5.0,51,0.00,,,0.00,Wunderground v.1.15,2013-03-25 19:35:00,
2013-03-25 15:45:00,41.8,25.0,29.56,NNE,30,5.0,7.0,51,0.00,,,0.00,Wunderground v.1.15,2013-03-25 19:45:00,
2013-03-25 15:50:00,41.6,25.3,29.56,NNW,340,5.0,9.0,52,0.00,,,0.00,Wunderground v.1.15,2013-03-25 19:50:00,
2013-03-25 16:00:00,41.5,24.7,29.55,NE,34,6.0,11.0,51,0.00,,,0.00,Wunderground v.1.15,2013-03-25 20:00:00,
2013-03-25 16:05:00,41.3,24.5,29.55,NW,318,5.0,11.0,51,0.00,,,0.00,Wunderground v.1.15,2013-03-25 20:05:00,
2013-03-25 16:15:00,41.1,25.3,29.55,North,5,4.0,5.0,53,0.00,,,0.00,Wunderground v.1.15,2013-03-25 20:15:00,
2013-03-25 16:20:00,41.2,24.9,29.55,NE,34,5.0,5.0,52,0.00,,,0.00,Wunderground v.1.15,2013-03-25 20:20:00,
2013-03-25 16:25:00,41.3,25.4,29.55,NNE,12,5.0,5.0,53,0.00,,,0.00,Wunderground v.1.15,2013-03-25 20:25:00,
2013-03-25 16:30:00,41.2,24.9,29.55,North,349,4.0,4.0,52,0.00,,,0.00,Wunderground v.1.15,2013-03-25 20:30:00,
2013-03-25 16:40:00,41.1,25.7,29.56,NNE,24,3.0,3.0,54,0.00,,,0.00,Wunderground v.1.15,2013-03-25 20:40:00,
2013-03-25 16:45:00,40.9,25.1,29.56,NNE,25,2.0,4.0,53,0.00,,,0.00,Wunderground v.1.15,2013-03-25 20:45:00,
2013-03-25 16:50:00,40.9,25.1,29.56,North,360,4.0,4.0,53,0.00,,,0.00,Wunderground v.1.15,2013-03-25 20:50:00,
2013-03-25 16:55:00,41.1,25.3,29.56,NNW,340,5.0,5.0,53,0.00,,,0.00,Wunderground v.1.15,2013-03-25 20:55:00,
2013-03-25 17:05:00,41.1,24.8,29.56,NNE,29,4.0,4.0,52,0.00,,,0.00,Wunderground v.1.15,2013-03-25 21:05:00,
2013-03-25 17:10:00,41.1,24.8,29.56,North,360,4.0,6.0,52,0.00,,,0.00,Wunderground v.1.15,2013-03-25 21:10:00,
2013-03-25 17:20:00,41.3,25.0,29.56,NNE,17,4.0,6.0,52,0.00,,,0.00,Wunderground v.1.15,2013-03-25 21:20:00,
2013-03-25 17:25:00,41.3,24.5,29.56,NE,34,4.0,6.0,51,0.00,,,0.00,Wunderground v.1.15,2013-03-25 21:25:00,
2013-03-25 17:30:00,41.2,24.4,29.56,North,10,4.0,4.0,51,0.00,,,0.00,Wunderground v.1.15,2013-03-25 21:30:00,
2013-03-25 17:35:00,41.2,24.9,29.57,NE,34,4.0,4.0,52,0.00,,,0.00,Wunderground v.1.15,2013-03-25 21:35:00,
2013-03-25 17:45:00,40.9,25.1,29.57,NE,38,4.0,5.0,53,0.00,,,0.00,Wunderground v.1.15,2013-03-25 21:45:00,
2013-03-25 17:50:00,40.9,25.5,29.57,ENE,62,4.0,4.0,54,0.00,,,0.00,Wunderground v.1.15,2013-03-25 21:50:00,
2013-03-25 18:00:00,40.6,26.1,29.57,NNW,346,4.0,4.0,56,0.00,,,0.00,Wunderground v.1.15,2013-03-25 22:00:00,
2013-03-25 18:05:00,40.5,25.6,29.57,NW,326,3.0,4.0,55,0.00,,,0.00,Wunderground v.1.15,2013-03-25 22:05:00,
2013-03-25 18:10:00,40.3,25.4,29.57,NNE,22,4.0,5.0,55,0.00,,,0.00,Wunderground v.1.15,2013-03-25 22:10:00,
2013-03-25 18:20:00,40.1,26.5,29.57,NNE,22,4.0,4.0,58,0.00,,,0.00,Wunderground v.1.15,2013-03-25 22:20:00,
2013-03-25 18:25:00,39.9,26.7,29.58,North,355,4.0,5.0,59,0.00,,,0.00,Wunderground v.1.15,2013-03-25 22:25:00,
2013-03-25 18:30:00,39.6,26.4,29.58,NNE,19,4.0,4.0,59,0.00,,,0.00,Wunderground v.1.15,2013-03-25 22:30:00,
2013-03-25 18:40:00,39.5,26.8,29.58,NE,39,4.0,4.0,60,0.00,,,0.00,Wunderground v.1.15,2013-03-25 22:40:00,
2013-03-25 18:45:00,39.6,26.4,29.58,NE,38,5.0,5.0,59,0.00,,,0.00,Wunderground v.1.15,2013-03-25 22:45:00,
2013-03-25 18:50:00,39.5,26.8,29.59,NNE,15,6.0,6.0,60,0.00,,,0.00,Wunderground v.1.15,2013-03-25 22:50:00,
2013-03-25 18:55:00,39.3,27.0,29.59,North,5,5.0,6.0,61,0.00,,,0.00,Wunderground v.1.15,2013-03-25 22:55:00,
2013-03-25 19:05:00,39.1,26.8,29.59,North,355,5.0,8.0,61,0.00,,,0.00,Wunderground v.1.15,2013-03-25 23:05:00,
2013-03-25 19:10:00,39.1,26.8,29.59,North,351,5.0,5.0,61,0.00,,,0.00,Wunderground v.1.15,2013-03-25 23:10:00,
2013-03-25 19:20:00,38.9,26.6,29.59,NNE,24,3.0,5.0,61,0.00,,,0.00,Wunderground v.1.15,2013-03-25 23:20:00,
2013-03-25 19:25:00,38.8,26.9,29.59,NE,50,2.0,5.0,62,0.00,,,0.00,Wunderground v.1.15,2013-03-25 23:25:00,
2013-03-25 19:30:00,38.6,26.7,29.59,NE,41,2.0,3.0,62,0.00,,,0.00,Wunderground v.1.15,2013-03-25 23:30:00,
2013-03-25 19:40:00,38.3,26.8,29.59,NNE,21,2.0,2.0,63,0.00,,,0.00,Wunderground v.1.15,2013-03-25 23:40:00,
2013-03-25 19:45:00,38.3,27.2,29.60,NE,34,1.0,2.0,64,0.00,,,0.00,Wunderground v.1.15,2013-03-25 23:45:00,
2013-03-25 19:50:00,38.2,27.1,29.60,NE,41,1.0,1.0,64,0.00,,,0.00,Wunderground v.1.15,2013-03-25 23:50:00,
2013-03-25 19:55:00,38.0,26.9,29.60,NNE,20,2.0,2.0,64,0.00,,,0.00,Wunderground v.1.15,2013-03-25 23:55:00,
2013-03-25 20:05:00,38.0,26.9,29.60,North,350,3.0,3.0,64,0.00,,,0.00,Wunderground v.1.15,2013-03-26 00:05:00,
2013-03-25 20:10:00,38.0,27.3,29.60,North,360,3.0,3.0,65,0.00,,,0.00,Wunderground v.1.15,2013-03-26 00:10:00,
2013-03-25 20:20:00,37.9,27.2,29.60,NNE,24,2.0,2.0,65,0.00,,,0.00,Wunderground v.1.15,2013-03-26 00:20:00,
2013-03-25 20:25:00,37.9,27.2,29.60,NE,40,2.0,2.0,65,0.00,,,0.00,Wunderground v.1.15,2013-03-26 00:25:00,
2013-03-25 20:30:00,37.8,27.8,29.61,NE,38,1.0,1.0,67,0.00,,,0.00,Wunderground v.1.15,2013-03-26 00:30:00,
2013-03-25 20:35:00,37.6,27.3,29.61,North,360,2.0,2.0,66,0.00,,,0.00,Wunderground v.1.15,2013-03-26 00:35:00,
2013-03-25 20:45:00,37.6,27.6,29.61,North,355,2.0,3.0,67,0.00,,,0.00,Wunderground v.1.15,2013-03-26 00:45:00,
2013-03-25 20:50:00,37.5,27.9,29.61,NNW,346,2.0,3.0,68,0.00,,,0.00,Wunderground v.1.15,2013-03-26 00:50:00,
2013-03-25 20:55:00,37.3,27.7,29.61,NE,47,2.0,4.0,68,0.00,,,0.00,Wunderground v.1.15,2013-03-26 00:55:00,
2013-03-25 21:00:00,37.2,28.0,29.62,North,355,2.0,2.0,69,0.00,,,0.00,Wunderground v.1.15,2013-03-26 01:00:00,
2013-03-25 21:10:00,37.0,27.8,29.62,North,355,1.0,2.0,69,0.00,,,0.00,Wunderground v.1.15,2013-03-26 01:10:00,
2013-03-25 21:15:00,37.0,28.1,29.62,North,350,2.0,2.0,70,0.00,,,0.00,Wunderground v.1.15,2013-03-26 01:15:00,
2013-03-25 21:20:00,37.0,28.5,29.62,NNW,346,2.0,2.0,71,0.00,,,0.00,Wunderground v.1.15,2013-03-26 01:20:00,
2013-03-25 21:30:00,36.9,28.7,29.62,NNW,344,2.0,2.0,72,0.00,,,0.00,Wunderground v.1.15,2013-03-26 01:30:00,
2013-03-25 21:35:00,36.8,29.0,29.62,NE,42,1.0,2.0,73,0.00,,,0.00,Wunderground v.1.15,2013-03-26 01:35:00,
2013-03-25 21:40:00,36.6,28.8,29.62,NNE,22,2.0,5.0,73,0.00,,,0.00,Wunderground v.1.15,2013-03-26 01:40:00,
2013-03-25 21:50:00,36.5,29.0,29.62,North,5,1.0,1.0,74,0.00,,,0.00,Wunderground v.1.15,2013-03-26 01:50:00,
2013-03-25 21:55:00,36.2,29.0,29.62,North,5,0.0,1.0,75,0.00,,,0.00,Wunderground v.1.15,2013-03-26 01:55:00,
2013-03-25 22:00:00,35.8,29.3,29.62,North,5,0.0,0.0,77,0.00,,,0.00,Wunderground v.1.15,2013-03-26 02:00:00,
2013-03-25 22:10:00,35.0,28.8,29.62,North,5,0.0,0.0,78,0.00,,,0.00,Wunderground v.1.15,2013-03-26 02:10:00,
2013-03-25 22:15:00,34.7,28.9,29.62,North,5,0.0,0.0,79,0.00,,,0.00,Wunderground v.1.15,2013-03-26 02:15:00,
2013-03-25 22:20:00,34.6,29.1,29.62,North,5,0.0,0.0,80,0.00,,,0.00,Wunderground v.1.15,2013-03-26 02:20:00,
2013-03-25 22:30:00,34.1,28.9,29.61,North,5,0.0,0.0,81,0.00,,,0.00,Wunderground v.1.15,2013-03-26 02:30:00,
2013-03-25 22:35:00,33.8,28.6,29.61,North,5,0.0,0.0,81,0.00,,,0.00,Wunderground v.1.15,2013-03-26 02:35:00,
2013-03-25 22:40:00,33.7,29.1,29.61,North,5,0.0,0.0,83,0.00,,,0.00,Wunderground v.1.15,2013-03-26 02:40:00,
2013-03-25 22:50:00,33.4,29.1,29.61,North,5,0.0,0.0,84,0.00,,,0.00,Wunderground v.1.15,2013-03-26 02:50:00,
2013-03-25 22:55:00,33.2,29.2,29.61,North,5,0.0,0.0,85,0.00,,,0.00,Wunderground v.1.15,2013-03-26 02:55:00,
2013-03-25 23:00:00,33.1,29.4,29.61,North,5,0.0,0.0,86,0.00,,,0.00,Wunderground v.1.15,2013-03-26 03:00:00,
2013-03-25 23:10:00,32.8,29.1,29.61,North,5,0.0,0.0,86,0.00,,,0.00,Wunderground v.1.15,2013-03-26 03:10:00,
2013-03-25 23:15:00,32.8,29.4,29.61,North,5,0.0,0.0,87,0.00,,,0.00,Wunderground v.1.15,2013-03-26 03:15:00,
2013-03-25 23:25:00,32.5,28.8,29.61,North,5,0.0,0.0,86,0.00,,,0.00,Wunderground v.1.15,2013-03-26 03:25:00,
2013-03-25 23:30:00,32.4,28.4,29.61,North,5,0.0,0.0,85,0.00,,,0.00,Wunderground v.1.15,2013-03-26 03:30:00,
2013-03-25 23:40:00,32.2,28.5,29.61,North,5,0.0,0.0,86,0.00,,,0.00,Wunderground v.1.15,2013-03-26 03:40:00,
2013-03-25 23:45:00,32.2,28.5,29.60,North,5,0.0,0.0,86,0.00,,,0.00,Wunderground v.1.15,2013-03-26 03:45:00,
2013-03-25 23:50:00,32.2,28.5,29.61,North,5,0.0,0.0,86,0.00,,,0.00,Wunderground v.1.15,2013-03-26 03:50:00,
2013-03-25 23:55:00,32.1,28.4,29.60,North,5,0.0,0.0,86,0.00,,,0.00,Wunderground v.1.15,2013-03-26 03:55:00,